Terminal Aerodrome Forecast
Issued by NWS Amarillo, TX

Home | Current Version | Previous Version | Text Only | Print | Product List | Glossary On
Versions: 1 2 3 4 5 6 7 8 9 10 11 12 13 14 15 16 17 18
000
FTUS44 KAMA 220500
TAFDHT
TAF
KDHT 220520Z 2206/2306 20008KT P6SM OVC100
     FM221000 20005KT P6SM OVC015
     FM221700 21012KT P6SM VCSH SCT020 OVC050=

USA.gov is the U.S. government's official web portal to all federal, state and local government web resources and services.